Weather History for LEAL - March, 2013

Change the Weather History Date:

Saturday, March 2, 2013

  Actual Average Record
Temperature  
Mean Temperature 52 °F -  
Max Temperature 62 °F 64 °F 82 °F (2015)
Min Temperature 43 °F 46 °F 32 °F (2004)
Degree Days  
Heating Degree Days 12    
Growing Degree Days 2 (Base 50)    
Moisture  
Dew Point 40 °F    
Average Humidity 62    
Maximum Humidity 82    
Minimum Humidity 25    
Precipitation  
Precipitation 0.00 in - - ()
Sea Level Pressure  
Sea Level Pressure 30.05 in    
Wind  
Wind Speed 5 mph ()    
Max Wind Speed 13 mph    
Max Gust Speed -    
Visibility 7.9 miles    
Events      
Averages and records for this station are not official NWS values.
T = Trace of Precipitation, MM = Missing Value Source: Averaged Metar Reports

Daily Weather History Graph

Daily Weather History Graph

Search for Another Location

Airport or City:

Trip Planner

Search our weather history database for the weather conditions in past years. The results will help you decide how hot, cold, wet, or windy it might be!

Date:

Astronomy

Mar. 02, 2013 Rise Set
Actual Time 7:32 AM CET 6:56 PM CET
Civil Twilight 7:06 AM CET 7:23 PM CET
Nautical Twilight 6:35 AM CET 7:53 PM CET
Astronomical Twilight 6:05 AM CET 8:24 PM CET
Moon No Moon Rise 9:54 AM CET (3/2)
Length of Visible Light 12h 16m
Length of Day
11h 23m
Waning Gibbous, 76% of the Moon is Illuminated
Mar 2
Waning Gibbous
Mar 4
Last Quarter
Mar 11
New
Mar 19
First Quarter
Mar 27
Full

Hourly Weather History & Observations

Time (CET) Temp. Windchill Dew Point Humidity Pressure Visibility Wind Dir Wind Speed Gust Speed Precip Events Conditions
12:00 AM 51.8 °F - 39.2 °F 62% 30.04 in 6.2 mi Variable 2.3 mph - N/A   Scattered Clouds
12:30 AM 51.8 °F - 39.2 °F 62% 30.01 in 6.2 mi South 4.6 mph - N/A   Scattered Clouds
1:00 AM 52 °F - 36 °F 44% 30.03 in 9 mi NW 2.3 mph - -   Partly Cloudy
1:00 AM 53.6 °F - 39.2 °F 58% 30.01 in 6.2 mi Variable 2.3 mph - N/A   Scattered Clouds
1:30 AM 51.8 °F - 41.0 °F 67% 30.04 in 6.2 mi Variable 2.3 mph - N/A   Scattered Clouds
2:00 AM 50.0 °F - 41.0 °F 71% 30.04 in 6.2 mi West 3.5 mph - N/A   Scattered Clouds
2:30 AM 48.2 °F - 41.0 °F 76% 30.01 in 6.2 mi West 3.5 mph - N/A   Scattered Clouds
3:00 AM 48.2 °F - 39.2 °F 71% 30.01 in 6.2 mi WNW 6.9 mph - N/A   Partly Cloudy
3:30 AM 48.2 °F - 39.2 °F 71% 30.01 in 6.2 mi WNW 5.8 mph - N/A   Partly Cloudy
4:00 AM 44.6 °F 41.4 °F 39.2 °F 81% 30.01 in - WNW 5.8 mph - N/A   Clear
4:30 AM 44.6 °F 40.2 °F 39.2 °F 81% 30.01 in - West 8.1 mph - N/A   Clear
5:00 AM 44.6 °F 40.2 °F 39.2 °F 81% 30.01 in - West 8.1 mph - N/A   Clear
5:30 AM 44.6 °F 40.2 °F 39.2 °F 81% 30.01 in - WNW 8.1 mph - N/A   Clear
6:00 AM 48.2 °F - 37.4 °F 66% 30.01 in - NW 6.9 mph - N/A   Clear
6:30 AM 46.4 °F - 37.4 °F 71% 30.01 in - Variable 2.3 mph - N/A   Clear
7:00 AM 45 °F - 35 °F 57% 30.03 in 12 mi NW 1.2 mph - -   Clear
7:30 AM 44.6 °F 41.4 °F 37.4 °F 76% 30.04 in - WNW 5.8 mph - N/A   Clear
8:00 AM 44.6 °F 40.7 °F 37.4 °F 76% 30.04 in - West 6.9 mph - N/A   Clear
8:30 AM 46.4 °F 44.3 °F 39.2 °F 76% 30.04 in - WSW 4.6 mph - N/A   Clear
9:00 AM 50.0 °F - 39.2 °F 66% 30.06 in - WSW 4.6 mph - N/A   Clear
9:30 AM 53.6 °F - 41.0 °F 62% 30.06 in - West 3.5 mph - N/A   Clear
10:00 AM 55.4 °F - 37.4 °F 51% 30.06 in - WSW 4.6 mph - N/A   Clear
10:30 AM 57.2 °F - 39.2 °F 51% 30.09 in - SW 3.5 mph - N/A   Clear
11:00 AM 59.0 °F - 37.4 °F 45% 30.09 in - WSW 3.5 mph - N/A   Clear
11:30 AM 60.8 °F - 39.2 °F 45% 30.06 in - Variable 1.2 mph - N/A   Clear
12:00 PM 60.8 °F - 37.4 °F 42% 30.06 in - Variable 2.3 mph - N/A   Clear
12:30 PM 60.8 °F - 42.8 °F 52% 30.06 in - East 9.2 mph - N/A   Clear
1:00 PM 60 °F - 34 °F 25% 30.09 in 12 mi East 11.5 mph - -   Clear
1:00 PM 60.8 °F - 37.4 °F 42% 30.06 in - East 10.4 mph - N/A   Clear
1:30 PM 59.0 °F - 37.4 °F 45% 30.06 in - East 11.5 mph - N/A   Clear
2:00 PM 59.0 °F - 41.0 °F 51% 30.06 in - East 11.5 mph - N/A   Clear
2:30 PM 59.0 °F - 41.0 °F 51% 30.06 in - East 11.5 mph - N/A   Clear
3:00 PM 59.0 °F - 42.8 °F 55% 30.06 in - East 12.7 mph - N/A   Clear
3:30 PM 59.0 °F - 42.8 °F 55% 30.06 in - ESE 10.4 mph - N/A   Clear
4:00 PM 57.2 °F - 42.8 °F 59% 30.06 in - ESE 9.2 mph - N/A   Clear
4:30 PM 59.0 °F - 37.4 °F 45% 30.06 in - ESE 8.1 mph - N/A   Clear
5:00 PM 59.0 °F - 37.4 °F 45% 30.06 in - ESE 8.1 mph - N/A   Clear
5:30 PM 59.0 °F - 39.2 °F 48% 30.06 in - ESE 6.9 mph - N/A   Clear
6:00 PM 57.2 °F - 44.6 °F 63% 30.06 in - ESE 3.5 mph - N/A   Clear
6:30 PM 55.4 °F - 46.4 °F 72% 30.06 in - ENE 4.6 mph - N/A   Clear
7:00 PM 54 °F - 44 °F 60% 30.08 in 12 mi ENE 4.6 mph - -   Scattered Clouds
7:00 PM 55.4 °F - 46.4 °F 72% 30.06 in - ENE 4.6 mph - N/A   Clear
7:30 PM 53.6 °F - 46.4 °F 77% 30.06 in - Variable 2.3 mph - N/A   Clear
8:00 PM 53.6 °F - 48.2 °F 82% 30.06 in - Variable 2.3 mph - N/A   Clear
8:30 PM 53.6 °F - 46.4 °F 77% 30.06 in - NNE 3.5 mph - N/A   Clear
9:00 PM 53.6 °F - 44.6 °F 72% 30.06 in - North 3.5 mph - N/A   Clear
9:30 PM 53.6 °F - 44.6 °F 72% 30.09 in - North 4.6 mph - N/A   Clear
10:00 PM 51.8 °F - 41.0 °F 67% 30.09 in - NNE 3.5 mph - N/A   Clear
10:30 PM 51.8 °F - 41.0 °F 67% 30.09 in - North 3.5 mph - N/A   Clear
11:00 PM 51.8 °F - 41.0 °F 67% 30.09 in - North 4.6 mph - N/A   Clear
11:30 PM 51.8 °F - 39.2 °F 62% 30.09 in - North 5.8 mph - N/A   Clear